#timestamp,LO_Frequency,Hit,StdDev 
1574283615.9,286047000.7,N
1574283635.7,286047000.4,N
1574283655.5,286047000.0,N
1574283675.4,286047002.7,Y
1574283695.2,286047002.6,P
1574283715.1,286047002.8,N
1574283716.0,286047002.8,N
1574283735.8,286047002.3,N
1574283755.6,286047000.1,N
1574283775.5,286047000.9,N
1574283795.3,286047000.5,N
1574283815.1,286047000.7,N
1574283835.9,286046998.6,N
1574283855.7,286047000.8,N
1574283875.6,286046998.4,N
1574283895.4,286046998.3,N
1574283915.2,286046999.5,N
1574283935.1,286046996.5,N
1574283936.0,286046996.5,N
1574283955.8,286046999.0,N
1574283975.6,286046999.4,N
1574283995.5,286046998.3,N
1574284015.3,286046998.2,N
1574284035.2,286047001.1,N
1574284055.9,286047000.6,N
1574284075.7,286047001.0,N
1574284095.6,286046999.5,N
1574284115.4,286046998.9,N
1574284135.2,286046999.6,N
1574284155.1,286046996.6,N
1574284156.0,286046996.6,N
1574284175.8,286046998.7,N
1574284195.7,286047000.9,N
1574284215.5,286047001.0,N
1574284235.3,286046999.7,N
1574284255.2,286047000.7,N
1574284275.9,286047000.9,N
1574284295.7,286047002.8,N
1574284315.6,286047002.6,N
1574284335.4,286046999.9,N
1574284355.2,286047000.3,N
1574284375.1,286047002.5,N
1574284376.0,286047002.5,N
1574284395.8,286047002.8,N
1574284415.7,286047002.6,N
1574284435.5,286047000.1,N
1574284455.3,286047000.4,N
1574284475.2,286047000.6,N
1574284495.0,286047000.3,N
1574284495.9,286047000.3,N
1574284515.8,286047000.0,N
1574284535.6,286047000.7,N
1574284555.4,286046998.4,N
1574284575.3,286046998.3,N
1574284595.1,286046999.4,N
1574284596.0,286046999.4,N
1574284615.8,286046998.9,N
1574284635.7,286046998.7,N
1574284655.5,286046999.4,N
1574284675.3,286046998.4,N
1574284695.2,286046996.5,N
1574284715.0,286046999.6,N
1574284715.9,286046999.6,N
1574284735.8,286046997.0,N
1574284755.6,286046999.3,N
1574284775.4,286046998.9,N
1574284795.3,286046996.8,N
1574284815.1,286046995.1,N
1574284835.9,286046995.9,N
1574284855.7,286046993.6,Y
1574284875.5,286046996.2,P
1574284895.4,286046993.3,P
1574284915.2,286046993.3,N
1574284935.0,286046995.9,N
1574284935.9,286046995.9,N
1574284955.8,286046993.4,Y
1574284975.6,286046998.5,P
1574284995.5,286047000.0,N
1574285015.3,286047001.2,N
1574285035.1,286047001.2,N
1574285055.9,286047000.9,N
1574285075.7,286047002.1,N
1574285095.5,286047002.0,N
1574285115.4,286047004.1,N
1574285135.2,286047003.9,N
1574285155.1,286047001.6,N
1574285156.0,286047001.6,N
1574285175.8,286046999.7,N
1574285195.6,286047001.6,N
1574285215.5,286047004.1,N
1574285235.3,286047003.2,N
1574285255.1,286047005.7,N
1574285275.9,286047005.4,N
1574285295.7,286047005.1,N
1574285315.6,286047006.9,N
1574285335.4,286047004.6,N
1574285355.2,286047006.7,N
1574285375.1,286047007.1,N
1574285376.0,286047007.1,N
1574285395.8,286047006.8,N
1574285415.6,286047006.3,N
1574285435.5,286047007.5,N
1574285455.3,286047004.6,N
1574285475.2,286047003.1,N
1574285495.9,286047003.7,N
1574285515.7,286047005.3,N
1574285535.6,286047005.0,N
1574285555.4,286047005.8,N
1574285575.2,286047007.6,Y
1574285595.1,286047002.3,P
1574285596.0,286047002.3,N
1574285615.8,286047002.2,N
1574285635.7,286047002.7,Y
1574285655.5,286046998.9,P
1574285675.3,286047000.5,N
1574285695.2,286046998.2,N
1574285715.0,286046998.2,N
1574285715.9,286046998.2,N
1574285735.8,286046999.2,N
1574285755.6,286046996.9,N
1574285775.4,286046996.6,N
1574285795.3,286046997.7,N
1574285815.1,286046995.3,N
1574285835.8,286046999.3,N
1574285855.7,286046998.9,N
1574285875.5,286046999.5,N
1574285895.4,286047011.9,Y
1574285915.2,286047000.9,P
1574285935.0,286046999.8,N
1574285935.9,286046999.8,N
1574285955.8,286047002.7,Y
1574285975.6,286047000.1,P
1574285995.5,286047003.5,P
1574286015.3,286047004.1,N
1574286035.1,286047003.3,N
1574286055.9,286047004.0,N
1574286075.7,286047002.5,N
1574286095.6,286047002.3,N
1574286115.4,286047000.5,N
1574286135.2,286047001.1,N
1574286155.1,286046998.2,N
1574286156.0,286046998.2,N
1574286175.8,286047000.2,N
1574286195.6,286047000.5,N
1574286215.5,286047000.4,N
1574286235.3,286047002.4,N
1574286255.2,286046999.8,N
1574286275.9,286047002.8,N
1574286295.7,286047000.3,N
1574286315.6,286047000.3,N
1574286335.4,286047000.2,N
1574286355.3,286047002.2,N
1574286375.1,286046999.9,N
1574286376.0,286046999.9,N
1574286395.8,286047002.4,N
1574286415.7,286047002.7,N
1574286435.5,286046999.9,N
1574286455.3,286047002.8,N
1574286475.2,286047002.3,N
1574286495.0,286046999.7,N
1574286495.9,286046999.7,N
1574286515.8,286047000.4,N
1574286535.6,286047000.9,N
1574286555.4,286047000.8,N
1574286575.3,286047001.1,N
1574286595.1,286047000.9,N
1574286615.9,286047001.0,N
1574286635.7,286047000.8,N
1574286655.5,286047001.9,N
1574286675.4,286047002.0,N
1574286695.2,286047001.9,N
1574286715.1,286047002.2,N
1574286716.0,286047002.2,N
1574286765.8,286047000.4,E
1574286775.7,286047000.2,N
1574286795.6,286047001.1,P
1574286815.4,286046999.0,N
1574286835.3,286046999.5,N
1574286855.1,286046997.8,N
1574286856.0,286046997.8,N
1574286875.8,286046996.6,N
1574286895.7,286047011.9,Y
1574286915.5,286046998.4,P
1574286935.3,286046997.4,P
1574286955.2,286046998.8,N
1574286975.0,286046998.7,N
1574286975.9,286046998.7,N
1574286995.8,286047000.6,N
1574287015.6,286046999.7,N
1574287035.4,286046998.6,N
1574287055.3,286046996.5,Y
1574287075.1,286047001.1,P
1574287095.9,286046998.6,N
1574287115.7,286046998.1,N
1574287135.5,286046999.1,N
1574287155.4,286046997.5,N
1574287175.2,286046995.3,Y
1574287195.1,286046996.7,P
1574287196.0,286046996.7,P
